Hourly Weather Holoshyntsi

Today, 16 April, Friday

Time Temperature Precipitation Wind Pressure Humidity
00:00 -1°C° 0.1 mm 5 mps 731 mmHg 96%
01:00 -1°C° 0.1 mm 5 mps 731 mmHg 96%
02:00 -1°C° 0 mm 4 mps 731 mmHg 96%
03:00 -1°C° 0.3 mm 5 mps 731 mmHg 96%
04:00 -1°C° 0.3 mm 5 mps 730 mmHg 97%
05:00 -1°C° 0.3 mm 5 mps 730 mmHg 97%
06:00 -1°C° 0.8 mm 5 mps 730 mmHg 97%
07:00 -2°C° 0.8 mm 6 mps 730 mmHg 97%
08:00 -2°C° 0 mm 6 mps 730 mmHg 97%
09:00 -2°C° 0.3 mm 6 mps 730 mmHg 97%
10:00 -2°C° 0.3 mm 6 mps 730 mmHg 96%
11:00 -1°C° 0.3 mm 6 mps 730 mmHg 96%
12:00 -1°C° 0.2 mm 6 mps 731 mmHg 96%
13:00 -1°C° 0.2 mm 6 mps 731 mmHg 97%
14:00 -1°C° 0.2 mm 6 mps 731 mmHg 97%
15:00 -1°C° 0.3 mm 6 mps 731 mmHg 97%
16:00 -1°C° 0.3 mm 6 mps 731 mmHg 97%
17:00 -1°C° 0.3 mm 6 mps 731 mmHg 97%
18:00 -2°C° 0 mm 6 mps 732 mmHg 97%
19:00 -2°C° 0 mm 6 mps 732 mmHg 96%
20:00 -1°C° 0 mm 5 mps 732 mmHg 96%
21:00 -1°C° 0 mm 5 mps 732 mmHg 96%
22:00 -1°C° 0 mm 5 mps 732 mmHg 97%
23:00 -1°C° 0 mm 4 mps 733 mmHg 97%

Tomorrow, 17 April, Saturday

Time Temperature Precipitation Wind Pressure Humidity
00:00 -1°C° 0.1 mm 4 mps 733 mmHg 97%
01:00 -1°C° 0.1 mm 4 mps 733 mmHg 97%
02:00 -1°C° 0.1 mm 4 mps 733 mmHg 97%
03:00 -1°C° 0.1 mm 4 mps 733 mmHg 97%
04:00 -1°C° 0.1 mm 4 mps 733 mmHg 97%
05:00 -1°C° 0.1 mm 4 mps 733 mmHg 97%
06:00 0°C° 0.1 mm 3 mps 734 mmHg 98%
07:00 0°C° 0.1 mm 3 mps 734 mmHg 98%
08:00 +1°C° 0.1 mm 3 mps 734 mmHg 98%
09:00 +1°C° 0.1 mm 3 mps 734 mmHg 98%
10:00 +1°C° 0.1 mm 3 mps 735 mmHg 98%
11:00 +1°C° 0.1 mm 3 mps 735 mmHg 98%
12:00 +2°C° 0 mm 3 mps 735 mmHg 97%
13:00 +3°C° 0 mm 2 mps 735 mmHg 97%
14:00 +3°C° 0 mm 2 mps 735 mmHg 96%
15:00 +3°C° 0 mm 2 mps 735 mmHg 96%
16:00 +3°C° 0 mm 2 mps 735 mmHg 96%
17:00 +4°C° 0 mm 1 mps 735 mmHg 96%
18:00 +4°C° 0 mm 1 mps 736 mmHg 96%
19:00 +4°C° 0 mm 1 mps 736 mmHg 96%
20:00 +4°C° 0 mm 1 mps 736 mmHg 96%
21:00 +4°C° 0 mm 1 mps 736 mmHg 96%
22:00 +4°C° 0 mm 1 mps 736 mmHg 96%
23:00 +3°C° 0 mm 0 mps 735 mmHg 97%

Day after tomorrow, 18 April, Sunday

Time Temperature Precipitation Wind Pressure Humidity
00:00 +3°C° 0 mm 1 mps 735 mmHg 97%
01:00 +3°C° 0 mm 1 mps 735 mmHg 97%
02:00 +3°C° 0 mm 1 mps 735 mmHg 97%
03:00 +3°C° 0 mm 1 mps 735 mmHg 97%
04:00 +3°C° 0 mm 1 mps 735 mmHg 97%
05:00 +1°C° 0 mm 2 mps 735 mmHg 97%
06:00 +2°C° 0 mm 2 mps 735 mmHg 95%
07:00 +2°C° 0 mm 2 mps 735 mmHg 94%
08:00 +3°C° 0 mm 2 mps 735 mmHg 93%
09:00 +5°C° 0 mm 2 mps 734 mmHg 86%
10:00 +6°C° 0 mm 2 mps 734 mmHg 79%
11:00 +8°C° 0 mm 2 mps 734 mmHg 72%
12:00 +9°C° 0 mm 2 mps 734 mmHg 67%
13:00 +10°C° 0 mm 2 mps 734 mmHg 63%
14:00 +12°C° 0 mm 2 mps 734 mmHg 58%
15:00 +12°C° 0 mm 2 mps 733 mmHg 60%
16:00 +11°C° 0 mm 3 mps 733 mmHg 63%
17:00 +11°C° 0 mm 3 mps 733 mmHg 66%
18:00 +9°C° 0 mm 3 mps 733 mmHg 74%
19:00 +8°C° 0 mm 3 mps 734 mmHg 83%
20:00 +7°C° 0 mm 3 mps 734 mmHg 91%
21:00 +7°C° 0 mm 3 mps 734 mmHg 91%
22:00 +7°C° 0 mm 2 mps 733 mmHg 92%
23:00 +6°C° 0 mm 2 mps 733 mmHg 92%

19 April, Monday

Time Temperature Precipitation Wind Pressure Humidity
00:00 +6°C° 0 mm 2 mps 733 mmHg 91%
01:00 +6°C° 0 mm 2 mps 733 mmHg 90%
02:00 +6°C° 0 mm 2 mps 733 mmHg 89%
03:00 +6°C° 0 mm 2 mps 733 mmHg 89%
04:00 +5°C° 0 mm 2 mps 733 mmHg 88%
05:00 +5°C° 0 mm 2 mps 733 mmHg 88%
06:00 +6°C° 0 mm 2 mps 733 mmHg 84%
07:00 +5°C° 0 mm 3 mps 732 mmHg 80%
08:00 +7°C° 0 mm 3 mps 732 mmHg 76%
09:00 +8°C° 0 mm 3 mps 732 mmHg 70%
10:00 +9°C° 0 mm 3 mps 732 mmHg 64%
11:00 +10°C° 0 mm 3 mps 732 mmHg 58%
12:00 +11°C° 0 mm 3 mps 731 mmHg 54%
13:00 +12°C° 0 mm 3 mps 731 mmHg 50%
14:00 +12°C° 0 mm 3 mps 730 mmHg 47%
15:00 +12°C° 0 mm 4 mps 730 mmHg 52%
16:00 +11°C° 0 mm 4 mps 730 mmHg 57%
17:00 +9°C° 0 mm 5 mps 729 mmHg 63%
18:00 +8°C° 0 mm 4 mps 729 mmHg 67%
19:00 +8°C° 0 mm 4 mps 729 mmHg 71%
20:00 +7°C° 0 mm 4 mps 729 mmHg 75%
21:00 +7°C° 0 mm 3 mps 729 mmHg 79%
22:00 +5°C° 0 mm 3 mps 728 mmHg 82%
23:00 +4°C° 0 mm 3 mps 728 mmHg 86%

20 April, Tuesday

Time Temperature Precipitation Wind Pressure Humidity
00:00 +3°C° 0 mm 3 mps 728 mmHg 89%
01:00 +4°C° 0 mm 2 mps 728 mmHg 92%
02:00 +3°C° 0 mm 2 mps 727 mmHg 95%
03:00 +2°C° 0 mm 3 mps 727 mmHg 94%
04:00 +2°C° 0 mm 3 mps 727 mmHg 94%
05:00 +2°C° 0 mm 3 mps 726 mmHg 94%
06:00 +3°C° 0 mm 4 mps 726 mmHg 91%
07:00 +4°C° 0 mm 4 mps 726 mmHg 89%
08:00 +3°C° 0 mm 5 mps 726 mmHg 86%
09:00 +4°C° 0.1 mm 6 mps 725 mmHg 79%
10:00 +5°C° 0.1 mm 7 mps 725 mmHg 73%
11:00 +8°C° 0.1 mm 7 mps 725 mmHg 66%
12:00 +8°C° 0.1 mm 7 mps 725 mmHg 64%
13:00 +8°C° 0.1 mm 7 mps 725 mmHg 62%
14:00 +9°C° 0.1 mm 7 mps 725 mmHg 59%
15:00 +9°C° 0.1 mm 7 mps 725 mmHg 61%
16:00 +9°C° 0.1 mm 7 mps 725 mmHg 63%
17:00 +9°C° 0.1 mm 7 mps 725 mmHg 65%
18:00 +8°C° 0 mm 6 mps 725 mmHg 69%
19:00 +7°C° 0 mm 6 mps 725 mmHg 74%
20:00 +5°C° 0 mm 5 mps 726 mmHg 78%
21:00 +5°C° 0 mm 5 mps 726 mmHg 82%
22:00 +5°C° 0 mm 5 mps 726 mmHg 85%
23:00 +3°C° 0 mm 6 mps 726 mmHg 89%

21 April, Wednesday

Time Temperature Precipitation Wind Pressure Humidity
00:00 +3°C° 0 mm 6 mps 726 mmHg 90%
01:00 +3°C° 0 mm 6 mps 726 mmHg 90%
02:00 +2°C° 0 mm 6 mps 727 mmHg 91%
03:00 +2°C° 0 mm 6 mps 727 mmHg 91%
04:00 +2°C° 0 mm 5 mps 727 mmHg 90%
05:00 +2°C° 0 mm 5 mps 727 mmHg 90%
06:00 +3°C° 0 mm 6 mps 728 mmHg 85%
07:00 +4°C° 0 mm 6 mps 728 mmHg 80%
08:00 +5°C° 0 mm 6 mps 729 mmHg 76%
09:00 +6°C° 0 mm 7 mps 729 mmHg 70%
10:00 +8°C° 0 mm 7 mps 729 mmHg 63%
11:00 +10°C° 0 mm 7 mps 729 mmHg 57%
12:00 +10°C° 0.1 mm 7 mps 729 mmHg 55%
13:00 +11°C° 0.1 mm 7 mps 730 mmHg 53%
14:00 +11°C° 0.1 mm 6 mps 730 mmHg 51%
15:00 +11°C° 0.1 mm 6 mps 730 mmHg 53%
16:00 +12°C° 0.1 mm 5 mps 730 mmHg 54%
17:00 +12°C° 0.1 mm 4 mps 730 mmHg 55%
18:00 +11°C° 0 mm 3 mps 731 mmHg 60%
19:00 +10°C° 0 mm 2 mps 731 mmHg 66%
20:00 +8°C° 0 mm 2 mps 732 mmHg 71%
21:00 +8°C° 0 mm 2 mps 732 mmHg 72%
22:00 +8°C° 0 mm 2 mps 732 mmHg 74%
23:00 +7°C° 0 mm 2 mps 732 mmHg 76%
Show more